period_start,C,m1,H,J0,J1,J2,J3,J4,J5,JA,JB,JC,JD,JJ,JK,JN,#
2018-06-05 00:01:10,0.02,0.60,0.00,27.29,30.04,32.74,13.76,46.33,1024.43,2015.98,3152.01,2904.08,3335.05,600.15,592.29,29.96,0000 0000 0000 0000 000000
2018-06-05 00:06:11,-0.06,0.60,0.00,27.32,30.12,32.81,13.78,46.26,1024.47,2015.50,3151.88,2903.97,3334.78,600.26,592.40,30.01,0000 0000 0000 0000 000000
2018-06-05 00:11:12,0.02,0.60,0.00,27.37,30.19,32.90,13.73,46.29,1024.64,2015.03,3151.19,2903.43,3334.07,599.40,591.43,30.06,0000 0000 0000 0000 000000
2018-06-05 00:16:14,0.01,0.60,0.00,27.41,30.25,32.96,13.76,46.34,1024.88,2014.97,3150.92,2902.97,3333.79,599.84,591.90,30.11,0000 0000 0000 0000 000000
2018-06-05 00:21:15,0.00,0.60,0.00,27.45,30.32,33.05,13.76,46.34,1024.90,2014.61,3150.04,2902.18,3333.01,600.03,591.97,30.17,0000 0000 0000 0000 000000
2018-06-05 00:26:16,-0.01,0.60,0.00,27.47,30.39,33.11,13.74,46.43,1024.91,2014.05,3149.39,2901.95,3332.32,599.37,591.35,30.22,0000 0000 0000 0000 000000
2018-06-05 00:31:17,0.03,0.60,0.00,27.50,30.45,33.18,13.81,46.42,1024.92,2014.00,3148.96,2901.15,3331.90,599.99,591.89,30.27,0000 0000 0000 0000 000000
2018-06-05 00:36:18,0.02,0.60,0.00,27.52,30.52,33.24,13.77,46.38,1024.92,2013.95,3148.27,2900.99,3331.10,600.23,592.19,30.32,0000 0000 0000 0000 000000
2018-06-05 00:41:19,-0.04,0.60,0.00,27.54,30.58,33.31,13.73,46.34,1024.94,2013.47,3148.00,2900.47,3330.95,599.97,591.90,30.37,0000 0000 0000 0000 000000
2018-06-05 00:46:21,1.58,0.65,0.00,27.55,30.64,33.39,13.81,46.38,1025.06,2013.02,3119.68,2884.36,3312.83,599.93,591.90,30.42,0000 0000 0000 0000 000000
2018-06-05 00:51:22,0.16,0.69,0.00,27.54,30.69,33.43,13.87,46.48,1025.04,2013.00,3108.45,2877.95,3305.50,600.38,592.47,30.47,0000 0000 0000 0000 000000
2018-06-05 00:56:23,0.01,0.69,0.00,27.47,30.74,33.52,13.86,46.37,1025.16,2012.82,3107.05,2877.02,3304.67,600.23,592.28,30.52,0000 0000 0000 0000 000000
2018-06-05 01:01:24,-0.02,0.69,0.00,26.88,30.77,33.86,13.85,46.55,1025.23,2012.25,3106.49,2876.78,3304.02,600.21,593.51,30.57,0000 0000 0000 0000 000000
2018-06-05 01:06:25,0.01,0.69,0.00,26.28,30.80,33.81,13.96,46.59,1025.17,2012.03,3106.00,2876.09,3303.98,600.14,594.60,30.62,0000 0000 0000 0000 000000
2018-06-05 01:11:26,0.00,0.69,0.00,26.08,30.80,33.72,13.93,46.71,1025.33,2012.02,3105.87,2876.02,3303.95,600.18,595.10,30.67,0000 0000 0000 0000 000000
2018-06-05 01:16:27,0.02,0.69,0.00,25.90,30.77,33.66,14.01,46.85,1025.40,2012.08,3104.78,2875.69,3303.54,600.13,595.38,30.72,0000 0000 0000 0000 000000
2018-06-05 01:21:29,0.51,0.71,0.00,25.75,30.76,33.55,13.88,46.75,1025.40,2012.08,3094.11,2869.64,3296.63,600.04,595.69,30.77,0000 0000 0000 0000 000000
2018-06-05 01:26:30,0.04,0.72,0.00,25.66,30.73,33.45,13.96,46.63,1025.40,2012.38,3093.00,2869.00,3295.97,600.03,595.79,30.82,0000 0000 0000 0000 000000
2018-06-05 01:31:31,0.03,0.72,0.00,25.59,30.69,33.48,13.95,46.77,1025.40,2012.73,3092.83,2869.00,3295.94,600.23,596.16,30.87,0000 0000 0000 0000 000000
2018-06-05 01:36:33,0.01,0.72,0.00,25.52,30.65,33.52,14.03,46.82,1025.40,2012.95,3092.69,2869.00,3295.98,599.90,596.01,30.92,0000 0000 0000 0000 000000
2018-06-05 01:41:34,-0.00,0.72,0.00,25.52,30.61,33.44,13.98,46.90,1025.40,2012.99,3092.82,2869.03,3295.99,600.03,596.15,30.97,0000 0000 0000 0000 000000
2018-06-05 01:46:35,0.00,0.72,0.00,25.51,30.56,33.37,13.98,46.77,1025.40,2012.99,3092.95,2869.14,3295.99,600.09,596.05,31.02,0000 0000 0000 0000 000000
2018-06-05 01:51:36,-0.02,0.72,0.00,25.51,30.51,33.31,13.97,46.71,1025.43,2013.01,3092.98,2869.70,3296.04,599.96,596.08,31.07,0000 0000 0000 0000 000000
2018-06-05 01:56:37,0.01,0.72,0.00,25.50,30.46,33.25,14.05,46.70,1025.47,2013.24,3092.99,2869.94,3296.47,599.87,596.06,31.12,0000 0000 0000 0000 000000
2018-06-05 02:01:39,0.04,0.72,0.00,25.49,30.41,33.18,13.96,46.77,1025.52,2013.72,3092.99,2869.99,3296.92,599.92,596.16,31.17,0000 0000 0000 0000 000000
2018-06-05 02:06:40,0.01,0.72,0.00,25.51,30.37,33.14,13.98,46.75,1025.45,2013.99,3093.01,2870.00,3296.99,599.96,596.10,31.22,0000 0000 0000 0000 000000
2018-06-05 02:11:41,-0.01,0.72,0.00,25.48,30.32,33.07,14.04,46.61,1025.45,2013.99,3093.26,2870.17,3297.02,599.84,596.18,31.27,0000 0000 0000 0000 000000
2018-06-05 02:16:42,-0.02,0.72,0.00,25.49,30.27,33.01,13.93,46.67,1025.43,2014.00,3093.71,2870.65,3297.23,600.11,596.28,31.32,0000 0000 0000 0000 000000
2018-06-05 02:21:43,0.11,0.73,0.00,25.53,30.23,32.99,14.09,46.54,1025.47,2014.23,3092.93,2869.80,3296.24,600.56,596.53,31.37,0000 0000 0000 0000 000000
2018-06-05 02:26:45,0.07,0.73,0.00,25.58,30.19,32.98,13.99,46.42,1025.59,2014.89,3092.70,2869.02,3295.94,600.18,596.23,31.42,0000 0000 0000 0000 000000
2018-06-05 02:31:46,0.00,0.73,0.00,25.59,30.15,32.92,13.98,46.43,1025.69,2014.98,3092.91,2869.01,3295.99,600.12,596.22,31.47,0000 0000 0000 0000 000000
2018-06-05 02:36:47,0.00,0.73,0.00,25.59,30.11,32.90,13.96,46.59,1025.67,2014.99,3092.93,2869.00,3295.99,600.23,596.21,31.52,0000 0000 0000 0000 000000
2018-06-05 02:41:48,0.00,0.73,0.00,25.60,30.09,32.91,13.90,46.45,1025.61,2015.02,3092.98,2869.05,3295.99,599.81,595.86,31.57,0000 0000 0000 0000 000000
2018-06-05 02:46:50,0.00,0.73,0.00,25.59,30.06,32.90,13.98,46.47,1025.60,2015.11,3092.99,2869.32,3296.01,599.99,596.15,31.62,0000 0000 0000 0000 000000
2018-06-05 02:51:51,0.04,0.73,0.00,25.59,30.03,32.90,13.87,46.48,1025.61,2015.55,3093.00,2869.79,3296.04,599.56,595.78,31.67,0000 0000 0000 0000 000000
2018-06-05 02:56:52,0.01,0.73,0.00,25.59,30.01,32.90,13.99,46.61,1025.76,2015.93,3093.00,2869.90,3296.07,600.22,596.44,31.72,0000 0000 0000 0000 000000
2018-06-05 03:01:54,0.01,0.74,0.00,25.57,29.99,32.91,13.94,46.33,1025.88,2015.98,3093.00,2869.49,3296.04,600.19,596.49,31.77,0000 0000 0000 0000 000000
2018-06-05 03:06:55,-0.01,0.74,0.00,25.58,29.97,32.88,14.05,46.52,1025.89,2015.99,3093.01,2869.73,3296.11,600.24,596.48,31.82,0000 0000 0000 0000 000000
2018-06-05 03:11:56,-0.00,0.73,0.00,25.56,29.95,32.85,14.00,46.59,1025.89,2015.99,3093.01,2869.87,3296.16,600.08,596.35,31.87,0000 0000 0000 0000 000000
2018-06-05 03:16:57,0.03,0.74,0.00,25.42,29.92,32.71,14.00,46.58,1025.90,2015.99,3093.00,2869.17,3296.03,599.67,596.35,31.92,0000 0000 0000 0000 000000
2018-06-05 03:21:58,-0.01,0.74,0.00,25.37,29.89,32.48,14.01,46.57,1025.90,2016.00,3093.00,2869.31,3296.01,599.79,596.52,31.97,0000 0000 0000 0000 000000
2018-06-05 03:27:00,0.00,0.74,0.00,25.23,29.85,32.29,13.92,46.63,1025.89,2016.02,3093.00,2869.28,3296.00,599.85,596.84,32.02,0000 0000 0000 0000 000000
2018-06-05 03:32:01,-0.01,0.74,0.00,25.14,29.80,32.15,13.95,46.55,1025.86,2016.12,3093.00,2869.73,3296.08,599.71,596.85,32.07,0000 0000 0000 0000 000000
2018-06-05 03:37:02,0.05,0.74,0.00,25.07,29.75,31.86,13.94,46.48,1025.88,2016.68,3093.05,2869.96,3296.70,600.09,597.42,32.12,0000 0000 0000 0000 000000
2018-06-05 03:42:03,-0.00,0.74,0.00,25.01,29.68,31.65,13.95,46.52,1025.86,2016.98,3093.30,2869.99,3296.98,600.06,597.45,32.17,0000 0000 0000 0000 000000
2018-06-05 03:47:05,-0.02,0.74,0.00,24.95,29.62,31.43,13.92,46.56,1025.77,2017.00,3093.93,2870.29,3297.09,600.02,597.42,32.22,0000 0000 0000 0000 000000
2018-06-05 03:52:07,-0.01,0.74,0.00,24.91,29.55,31.35,13.94,46.61,1025.60,2017.14,3093.99,2870.91,3297.81,600.02,597.39,32.27,0000 0000 0000 0000 000000
2018-06-05 03:57:08,0.06,0.74,0.00,24.90,29.47,31.22,13.94,46.48,1025.54,2017.76,3094.04,2871.00,3297.99,599.92,597.38,32.32,0000 0000 0000 0000 000000
2018-06-05 04:02:09,-0.02,0.74,0.00,24.88,29.40,31.10,13.94,46.55,1025.47,2017.99,3094.52,2871.24,3298.30,600.20,597.61,32.37,0000 0000 0000 0000 000000
2018-06-05 04:07:10,-0.02,0.74,0.00,24.90,29.33,31.00,13.92,46.54,1025.42,2018.04,3094.98,2871.92,3298.94,600.00,597.30,32.42,0000 0000 0000 0000 000000
2018-06-05 04:12:11,0.06,0.74,0.00,24.88,29.25,30.93,13.89,46.42,1025.42,2018.58,3095.00,2872.00,3299.04,599.73,597.09,32.48,0000 0000 0000 0000 000000
2018-06-05 04:17:13,-0.02,0.74,0.00,24.87,29.18,30.88,13.96,46.53,1025.42,2018.98,3095.36,2872.48,3299.78,599.99,597.43,32.53,0000 0000 0000 0000 000000
2018-06-05 04:22:14,-0.01,0.74,0.00,24.86,29.11,30.85,13.94,46.54,1025.42,2019.00,3095.93,2872.98,3299.99,600.01,597.41,32.58,0000 0000 0000 0000 000000
2018-06-05 04:27:15,0.02,0.74,0.00,24.84,29.04,30.80,13.94,46.52,1025.41,2019.25,3095.99,2873.01,3300.47,600.11,597.61,32.63,0000 0000 0000 0000 000000
2018-06-05 04:32:16,0.02,0.74,0.00,24.86,28.97,30.76,13.97,46.52,1025.41,2019.91,3096.08,2873.62,3300.97,599.92,597.39,32.68,0000 0000 0000 0000 000000
2018-06-05 04:37:18,-0.02,0.74,0.00,24.85,28.90,30.73,13.96,46.47,1025.41,2019.99,3096.73,2873.98,3301.16,600.04,597.41,32.73,0000 0000 0000 0000 000000
2018-06-05 04:42:19,0.02,0.74,0.00,24.86,28.84,30.68,13.88,46.50,1025.41,2020.19,3096.98,2874.06,3301.86,600.00,597.40,32.78,0000 0000 0000 0000 000000
2018-06-05 04:47:20,0.03,0.74,0.00,24.87,28.78,30.64,13.91,46.54,1025.41,2020.81,3097.01,2874.67,3302.00,600.02,597.57,32.83,0000 0000 0000 0000 000000
2018-06-05 04:52:21,-0.01,0.74,0.00,24.89,28.72,30.59,13.89,46.56,1025.42,2020.99,3097.39,2874.99,3302.33,599.99,597.38,32.88,0000 0000 0000 0000 000000
2018-06-05 04:57:22,-0.01,0.74,0.00,24.90,28.67,30.59,13.87,46.73,1025.41,2021.00,3097.94,2875.01,3302.95,600.19,597.57,32.93,0000 0000 0000 0000 000000
2018-06-05 05:02:24,0.01,0.74,0.00,24.86,28.62,30.55,13.95,46.71,1025.41,2021.12,3097.98,2875.25,3303.00,600.04,597.61,32.98,0000 0000 0000 0000 000000
2018-06-05 05:07:25,0.03,0.74,0.00,24.77,28.57,30.46,13.99,46.80,1025.41,2021.73,3098.01,2875.93,3303.28,600.18,597.86,33.03,0000 0000 0000 0000 000000
2018-06-05 05:12:26,-0.00,0.74,0.00,24.58,28.52,30.25,13.75,46.83,1025.39,2021.96,3098.16,2875.99,3303.92,599.65,597.66,33.08,0000 0000 0000 0000 000000
2018-06-05 05:17:27,-0.01,0.74,0.00,24.43,28.46,30.03,13.93,46.80,1025.40,2021.99,3098.65,2876.03,3303.99,600.32,598.47,33.13,0000 0000 0000 0000 000000
2018-06-05 05:22:29,-0.03,0.74,0.00,24.38,28.40,29.92,13.92,46.83,1025.40,2022.03,3098.97,2876.69,3304.34,599.91,598.32,33.18,0000 0000 0000 0000 000000
2018-06-05 05:27:30,0.04,0.74,0.00,24.36,28.34,29.83,13.99,46.86,1025.40,2022.59,3099.01,2876.98,3304.96,600.22,598.56,33.23,0000 0000 0000 0000 000000
2018-06-05 05:32:31,0.02,0.74,0.00,24.40,28.27,29.79,13.88,46.88,1025.40,2022.95,3099.23,2877.07,3305.02,600.10,598.51,33.29,0000 0000 0000 0000 000000
2018-06-05 05:37:33,-0.03,0.74,0.00,24.48,28.22,29.82,13.87,46.83,1025.40,2022.99,3099.93,2877.74,3305.59,599.64,597.83,33.34,0000 0000 0000 0000 000000
2018-06-05 05:42:34,-0.01,0.74,0.00,24.54,28.17,29.83,13.93,46.87,1025.40,2023.02,3099.99,2877.98,3305.97,600.15,598.17,33.39,0000 0000 0000 0000 000000
2018-06-05 05:47:35,0.06,0.74,0.00,24.60,28.12,29.88,13.89,46.83,1025.40,2023.56,3099.99,2877.99,3306.00,600.09,598.09,33.44,0000 0000 0000 0000 000000
2018-06-05 05:52:36,0.01,0.75,0.00,24.66,28.07,29.87,13.90,46.77,1025.39,2023.93,3100.23,2878.08,3306.25,599.92,597.68,33.49,0000 0000 0000 0000 000000
2018-06-05 05:57:37,-0.02,0.74,0.00,24.70,28.03,29.91,13.83,46.77,1025.40,2023.99,3100.79,2878.52,3306.84,599.83,597.73,33.54,0000 0000 0000 0000 000000
2018-06-05 06:02:39,-0.01,0.74,0.00,24.69,27.99,29.89,14.00,46.76,1025.40,2023.99,3100.96,2878.92,3306.98,600.36,598.04,33.59,0000 0000 0000 0000 000000
2018-06-05 06:07:40,0.00,0.74,0.00,24.62,27.95,29.90,13.93,46.68,1025.40,2024.00,3100.99,2878.99,3307.00,600.29,598.13,33.64,0000 0000 0000 0000 000000
2018-06-05 06:12:41,0.02,0.74,0.00,24.70,27.91,29.93,13.95,46.69,1025.40,2024.16,3100.99,2878.99,3307.02,600.23,597.93,33.69,0000 0000 0000 0000 000000
2018-06-05 06:17:42,0.05,0.75,0.00,24.80,27.88,29.94,13.93,46.84,1025.40,2024.77,3100.99,2878.99,3307.43,600.18,597.72,33.74,0000 0000 0000 0000 000000
2018-06-05 06:22:43,0.00,0.75,0.00,24.87,27.85,29.97,13.95,46.84,1025.40,2024.96,3101.01,2878.99,3307.77,600.08,597.63,33.79,0000 0000 0000 0000 000000
2018-06-05 06:27:45,0.00,0.75,0.00,24.92,27.82,30.03,13.91,46.85,1025.42,2024.99,3101.00,2879.01,3307.87,600.11,597.42,33.84,0000 0000 0000 0000 000000
2018-06-05 06:32:46,0.00,0.75,0.00,24.97,27.80,30.07,13.87,46.73,1025.42,2024.99,3101.00,2879.02,3307.92,599.80,597.08,33.89,0000 0000 0000 0000 000000
2018-06-05 06:37:47,0.00,0.75,0.00,24.99,27.78,30.11,13.83,46.73,1025.43,2024.99,3101.01,2879.02,3307.96,600.03,597.18,33.94,0000 0000 0000 0000 000000
2018-06-05 06:42:48,0.00,0.75,0.00,25.07,27.77,30.13,13.88,46.70,1025.50,2024.99,3101.00,2879.03,3307.99,599.92,597.06,33.99,0000 0000 0000 0000 000000
2018-06-05 06:47:49,0.00,0.75,0.00,25.08,27.75,30.14,13.81,46.64,1025.44,2025.01,3101.00,2879.03,3307.98,599.95,597.02,34.04,0000 0000 0000 0000 000000
2018-06-05 06:52:50,0.00,0.75,0.00,25.12,27.75,30.19,13.93,46.72,1025.43,2025.03,3101.01,2879.07,3307.98,600.02,596.96,34.09,0000 0000 0000 0000 000000
2018-06-05 06:57:52,-0.00,0.75,0.00,25.09,27.75,30.25,13.94,46.73,1025.44,2025.08,3101.03,2879.31,3307.99,600.04,597.02,34.14,0000 0000 0000 0000 000000
2018-06-05 07:02:53,0.00,0.75,0.00,25.02,27.74,30.26,13.84,46.76,1025.45,2025.08,3101.02,2879.27,3307.99,599.91,597.01,34.19,0000 0000 0000 0000 000000
2018-06-05 07:07:54,0.01,0.75,0.00,25.04,27.72,30.25,13.89,46.73,1025.46,2025.16,3101.02,2879.27,3307.99,600.06,597.07,34.25,0000 0000 0000 0000 000000
2018-06-05 07:12:55,0.01,0.75,0.00,25.09,27.72,30.28,13.85,46.71,1025.48,2025.25,3101.00,2879.22,3307.99,599.84,596.90,34.30,0000 0000 0000 0000 000000
2018-06-05 07:17:56,0.01,0.75,0.00,25.11,27.72,30.29,13.92,46.68,1025.71,2025.36,3101.00,2879.17,3307.99,600.27,597.34,34.35,0000 0000 0000 0000 000000
2018-06-05 07:22:58,0.03,0.75,0.00,25.15,27.72,30.27,13.88,46.68,1025.83,2025.58,3100.99,2879.09,3307.98,599.95,597.03,34.40,0000 0000 0000 0000 000000
2018-06-05 07:27:59,0.02,0.75,0.00,25.20,27.70,30.35,13.85,46.69,1025.87,2025.80,3100.99,2879.15,3307.99,599.99,597.12,34.45,0000 0000 0000 0000 000000
2018-06-05 07:33:00,0.00,0.75,0.00,25.21,27.70,30.35,13.91,46.83,1025.86,2025.89,3100.98,2879.10,3307.99,600.14,597.19,34.50,0000 0000 0000 0000 000000
2018-06-05 07:38:02,0.00,0.75,0.00,25.55,27.70,30.39,13.83,46.67,1025.89,2025.92,3100.97,2879.06,3307.98,600.20,596.61,34.55,0000 0000 0000 0000 000000
2018-06-05 07:43:03,-0.00,0.75,0.00,25.75,27.70,30.43,13.83,46.63,1025.89,2025.89,3100.87,2879.01,3307.94,600.16,596.12,34.60,0000 0000 0000 0000 000000
2018-06-05 07:48:04,0.01,0.75,0.00,25.77,27.70,30.46,13.85,46.75,1025.90,2025.90,3100.75,2879.01,3307.91,600.05,595.90,34.65,0000 0000 0000 0000 000000
2018-06-05 07:53:05,0.01,0.75,0.00,25.81,27.72,30.50,13.90,46.57,1025.95,2025.88,3100.36,2879.00,3307.72,600.03,595.99,34.70,0000 0000 0000 0000 000000
2018-06-05 07:58:07,0.00,0.75,0.00,25.86,27.72,30.53,13.90,46.68,1025.96,2025.91,3100.08,2879.00,3307.30,600.23,596.04,34.75,0000 0000 0000 0000 000000
2018-06-05 08:03:08,-0.01,0.75,0.00,25.91,27.72,30.57,13.86,46.69,1025.92,2025.79,3100.03,2879.00,3307.14,600.15,595.76,34.80,0000 0000 0000 0000 000000
2018-06-05 08:08:09,-0.01,0.75,0.00,25.87,27.75,30.58,13.83,46.59,1025.95,2025.69,3100.01,2879.00,3307.03,599.80,595.63,34.85,0000 0000 0000 0000 000000
2018-06-05 08:13:10,-0.04,0.75,0.00,25.91,27.75,30.60,13.93,46.66,1025.94,2025.33,3100.00,2878.97,3307.00,600.32,595.88,34.90,0000 0000 0000 0000 000000
2018-06-05 08:18:11,-0.01,0.75,0.00,26.02,27.76,30.62,13.73,46.65,1025.91,2025.11,3099.97,2878.89,3306.99,599.73,595.12,34.95,0000 0000 0000 0000 000000
2018-06-05 08:23:13,0.01,0.75,0.00,26.08,27.77,30.66,13.79,46.67,1025.92,2025.06,3099.95,2878.76,3306.98,599.89,595.19,35.00,0000 0000 0000 0000 000000
2018-06-05 08:28:14,0.02,0.75,0.00,26.09,27.80,30.68,13.86,46.66,1026.06,2025.03,3099.50,2878.27,3306.81,600.22,595.61,35.05,0000 0000 0000 0000 000000
2018-06-05 08:33:15,0.17,0.76,0.00,26.07,27.81,30.70,13.92,46.73,1026.30,2025.01,3095.51,2876.31,3304.34,600.33,595.96,35.10,0000 0000 0000 0000 000000
2018-06-05 08:38:16,0.01,0.76,0.00,26.09,27.82,30.70,13.91,46.52,1026.34,2025.01,3094.60,2876.00,3303.96,600.41,595.91,35.15,0000 0000 0000 0000 000000
2018-06-05 08:43:18,0.01,0.76,0.00,26.03,27.84,30.69,13.78,46.54,1026.35,2025.00,3094.05,2875.98,3303.88,599.69,595.56,35.21,0000 0000 0000 0000 000000
2018-06-05 08:48:19,0.00,0.76,0.00,25.94,27.85,30.62,13.90,46.60,1026.37,2025.00,3094.00,2875.96,3303.52,600.26,596.10,35.26,0000 0000 0000 0000 000000
2018-06-05 08:53:21,0.01,0.76,0.00,25.82,27.86,30.52,13.75,46.62,1026.38,2025.00,3094.00,2875.72,3303.09,599.69,595.66,35.31,0000 0000 0000 0000 000000
2018-06-05 08:58:22,0.01,0.76,0.00,25.86,27.87,30.47,13.89,46.63,1026.38,2025.00,3093.97,2875.27,3303.03,600.25,596.25,35.36,0000 0000 0000 0000 000000
2018-06-05 09:03:23,0.00,0.76,0.00,25.94,27.87,30.48,13.79,46.52,1026.39,2025.00,3093.85,2875.04,3303.00,600.05,595.94,35.41,0000 0000 0000 0000 000000
2018-06-05 09:08:24,0.00,0.76,0.00,25.99,27.88,30.62,13.89,46.61,1026.53,2024.98,3093.72,2875.00,3302.99,600.12,595.88,35.46,0000 0000 0000 0000 000000
2018-06-05 09:13:25,0.01,0.76,0.00,25.69,27.89,30.61,13.82,46.59,1026.69,2024.98,3093.38,2875.00,3302.98,599.77,596.25,35.51,0000 0000 0000 0000 000000
2018-06-05 09:18:26,0.00,0.76,0.00,25.78,27.90,30.51,13.76,46.65,1026.63,2024.98,3093.02,2875.00,3302.96,599.87,596.18,35.56,0000 0000 0000 0000 000000
2018-06-05 09:23:27,0.00,0.76,0.00,25.73,27.90,30.44,13.86,46.50,1026.60,2024.99,3093.00,2874.99,3302.73,600.11,596.52,35.61,0000 0000 0000 0000 000000
2018-06-05 09:28:28,0.00,0.76,0.00,25.75,27.90,30.37,13.85,46.54,1026.81,2024.99,3092.97,2874.97,3302.38,599.83,596.38,35.66,0000 0000 0000 0000 000000
2018-06-05 09:33:30,0.00,0.77,0.00,25.82,27.88,30.34,13.86,46.55,1026.67,2024.99,3092.84,2874.96,3302.09,599.65,595.95,35.71,0000 0000 0000 0000 000000
2018-06-05 09:38:31,0.00,0.77,0.00,25.84,27.87,30.33,13.72,46.43,1026.69,2024.98,3092.69,2874.92,3302.01,599.56,595.83,35.76,0000 0000 0000 0000 000000
2018-06-05 09:43:33,0.00,0.77,0.00,25.86,27.87,30.35,13.78,46.49,1026.45,2024.97,3092.58,2874.89,3302.02,599.64,595.72,35.81,0000 0000 0000 0000 000000
2018-06-05 09:48:34,0.01,0.77,0.00,25.90,27.87,30.54,13.90,46.44,1026.51,2024.98,3092.30,2874.76,3302.00,599.99,596.03,35.86,0000 0000 0000 0000 000000
2018-06-05 09:53:35,0.01,0.77,0.00,25.83,27.87,30.65,13.85,46.45,1026.83,2024.97,3092.04,2874.42,3302.00,599.99,596.24,35.91,0000 0000 0000 0000 000000
2018-06-05 09:58:37,0.01,0.77,0.00,25.77,27.87,30.68,13.85,46.48,1026.86,2024.98,3092.00,2874.23,3302.00,599.87,596.38,35.96,0000 0000 0000 0000 000000
2018-06-05 10:03:38,0.00,0.77,0.00,25.78,27.87,30.70,13.79,46.45,1026.83,2024.99,3092.00,2874.07,3301.96,599.89,596.30,36.02,0000 0000 0000 0000 000000
2018-06-05 10:08:39,0.08,0.77,0.00,25.57,27.87,30.67,13.89,46.62,1026.83,2024.99,3090.92,2873.21,3300.41,599.95,596.90,36.07,0000 0000 0000 0000 000000
2018-06-05 10:13:41,0.01,0.77,0.00,25.41,27.87,30.52,13.91,46.65,1026.82,2024.98,3090.20,2872.94,3300.00,600.01,597.13,36.12,0000 0000 0000 0000 000000
2018-06-05 10:18:42,0.01,0.77,0.00,25.28,27.86,30.40,13.86,46.72,1026.86,2024.97,3090.01,2872.74,3299.98,600.04,597.38,36.17,0000 0000 0000 0000 000000
2018-06-05 10:23:43,-0.00,0.77,0.00,25.22,27.85,30.36,13.84,46.73,1026.87,2024.97,3090.00,2872.69,3299.98,599.72,597.31,36.22,0000 0000 0000 0000 000000
2018-06-05 10:28:45,0.00,0.77,0.00,25.17,27.83,30.30,13.87,46.73,1026.86,2024.99,3090.00,2872.86,3299.99,600.00,597.64,36.27,0000 0000 0000 0000 000000
2018-06-05 10:33:46,-0.00,0.77,0.00,25.21,27.82,30.30,13.87,46.64,1026.87,2024.99,3090.00,2872.88,3299.99,599.90,597.49,36.32,0000 0000 0000 0000 000000
2018-06-05 10:38:47,0.00,0.77,0.00,25.28,27.80,30.28,13.87,46.52,1026.87,2024.99,3090.00,2872.97,3299.99,599.78,597.33,36.37,0000 0000 0000 0000 000000
2018-06-05 10:43:49,0.00,0.77,0.00,25.34,27.80,30.33,13.85,46.53,1026.87,2025.00,3090.00,2872.97,3299.99,599.98,597.30,36.42,0000 0000 0000 0000 000000
2018-06-05 10:48:50,0.00,0.77,0.00,25.35,27.80,30.37,13.90,46.64,1026.87,2025.01,3090.00,2872.99,3299.99,600.10,597.49,36.47,0000 0000 0000 0000 000000
2018-06-05 10:53:51,0.00,0.77,0.00,25.33,27.79,30.37,13.95,46.56,1026.87,2025.05,3089.98,2872.98,3299.99,599.89,597.26,36.52,0000 0000 0000 0000 000000
2018-06-05 10:58:53,0.01,0.77,0.00,25.30,27.77,30.39,13.86,46.68,1026.88,2025.10,3089.97,2872.98,3299.99,600.13,597.53,36.57,0000 0000 0000 0000 000000
2018-06-05 11:03:54,-0.00,0.77,0.00,25.30,27.77,30.39,13.86,46.67,1026.87,2025.09,3089.99,2872.99,3299.99,600.25,597.57,36.62,0000 0000 0000 0000 000000
2018-06-05 11:08:55,0.00,0.77,0.00,25.28,27.77,30.41,13.96,46.58,1026.87,2025.10,3089.94,2872.98,3299.99,600.32,597.75,36.67,0000 0000 0000 0000 000000
2018-06-05 11:13:56,0.02,0.77,0.00,25.27,27.77,30.40,13.75,46.72,1026.87,2025.26,3089.95,2872.99,3300.00,599.67,597.15,36.72,0000 0000 0000 0000 000000
2018-06-05 11:18:58,0.02,0.77,0.00,25.26,27.77,30.40,13.86,46.63,1026.87,2025.40,3089.75,2872.97,3300.00,600.00,597.45,36.77,0000 0000 0000 0000 000000
2018-06-05 11:23:59,0.03,0.78,0.00,25.23,27.76,30.40,13.81,46.57,1026.87,2025.71,3089.15,2872.96,3300.00,599.61,597.16,36.82,0000 0000 0000 0000 000000
2018-06-05 11:29:00,0.01,0.78,0.00,25.21,27.75,30.40,13.88,46.60,1026.87,2025.88,3089.14,2872.98,3300.00,600.06,597.61,36.87,0000 0000 0000 0000 000000
2018-06-05 11:34:01,0.00,0.78,0.00,25.22,27.75,30.42,13.91,46.67,1026.87,2025.93,3089.03,2872.89,3299.99,600.20,597.72,36.92,0000 0000 0000 0000 000000
2018-06-05 11:39:02,0.01,0.78,0.00,25.24,27.75,30.42,13.80,46.67,1026.88,2025.93,3089.00,2872.75,3299.97,599.74,597.21,36.98,0000 0000 0000 0000 000000
2018-06-05 11:44:04,0.00,0.78,0.00,25.27,27.75,30.43,13.80,46.64,1026.87,2025.95,3089.00,2872.73,3299.98,599.60,596.96,37.03,0000 0000 0000 0000 000000
2018-06-05 11:49:05,0.00,0.78,0.00,25.27,27.75,30.48,13.97,46.71,1026.87,2025.96,3089.00,2872.74,3299.96,600.17,597.47,37.08,0000 0000 0000 0000 000000
2018-06-05 11:54:06,0.01,0.78,0.00,25.27,27.74,30.48,13.84,46.63,1026.88,2025.96,3089.00,2872.48,3299.92,599.67,597.19,37.13,0000 0000 0000 0000 000000
2018-06-05 11:59:08,0.00,0.78,0.00,25.26,27.74,30.50,13.84,46.56,1026.87,2025.94,3089.00,2872.30,3299.87,599.99,597.53,37.18,0000 0000 0000 0000 000000
2018-06-05 12:04:09,0.00,0.78,0.00,25.25,27.73,30.49,13.84,46.61,1026.87,2025.96,3088.97,2872.17,3299.81,599.77,597.21,37.23,0000 0000 0000 0000 000000
2018-06-05 12:09:10,0.01,0.78,0.00,25.22,27.72,30.48,13.92,46.61,1026.87,2025.96,3088.92,2872.16,3299.73,599.98,597.61,37.28,0000 0000 0000 0000 000000
2018-06-05 12:14:11,-0.01,0.78,0.00,25.16,27.72,30.49,13.96,46.67,1026.87,2025.96,3088.91,2872.12,3299.68,599.97,597.67,37.33,0000 0000 0000 0000 000000
2018-06-05 12:19:13,0.01,0.78,0.00,25.10,27.72,30.46,13.85,46.67,1026.87,2025.95,3088.84,2872.11,3299.64,600.00,597.97,37.38,0000 0000 0000 0000 000000
2018-06-05 12:24:14,-0.00,0.78,0.00,25.05,27.70,30.48,13.91,46.73,1026.88,2025.97,3088.71,2872.21,3299.74,600.17,598.13,37.43,0000 0000 0000 0000 000000
2018-06-05 12:29:15,0.01,0.78,0.00,25.02,27.70,30.50,13.89,46.60,1026.88,2025.99,3088.64,2872.29,3299.86,599.86,597.86,37.48,0000 0000 0000 0000 000000
2018-06-05 12:34:16,-0.01,0.78,0.00,25.04,27.69,30.49,13.93,46.75,1026.88,2025.99,3088.69,2872.41,3299.92,600.19,598.13,37.53,0000 0000 0000 0000 000000
2018-06-05 12:39:18,-0.01,0.78,0.00,25.02,27.67,30.47,13.93,46.72,1026.87,2025.99,3088.84,2872.66,3299.98,600.15,598.37,37.58,0000 0000 0000 0000 000000
2018-06-05 12:44:19,0.00,0.78,0.00,24.98,27.67,30.48,13.98,46.75,1026.87,2025.99,3088.83,2872.67,3299.95,600.25,598.29,37.63,0000 0000 0000 0000 000000
2018-06-05 12:49:20,-0.00,0.78,0.00,24.93,27.65,30.47,13.84,46.74,1026.88,2025.99,3088.90,2872.89,3299.98,599.94,598.11,37.68,0000 0000 0000 0000 000000
2018-06-05 12:54:21,0.00,0.78,0.00,24.86,27.64,30.55,14.01,46.71,1026.88,2026.00,3088.95,2872.98,3299.99,600.13,598.40,37.73,0000 0000 0000 0000 000000